Tracking 30074 objects as of 13-Jan-2025
HD Live streaming from Space Station
objects crossing your sky now

ARIANE 1 DEB

Track ARIANE 1 DEB now!


NORAD ID: 48343
Int'l Code: 1981-057G
Perigee: 558.8 km
Apogee: 28,620.0 km
Inclination: 10.6 °
Period: 503.3 minutes
Semi major axis: 20960 km
RCS: Unknown
Launch date: June 19, 1981
Source: European Space Agency (ESA)
Launch site: FRENCH GUIANA (FRGUI)

Note: This is SATELLITE DEBRIS
Your satellite tracking list
Your tracking list is empty




NASA's NSSDC Master Catalog

Two Line Element Set (TLE):
1 48343U 81057G   25007.94640936  .00000858  00000-0  60836-2 0  9994
2 48343  10.6459 236.2989 6693860 216.2994 344.7662  2.86090014257634
Source of the keplerian elements: AFSPC